#timestamp,LO_Frequency,Hit,StdDev 
1501718415.1,286047002.5,N,1.2
1501718435.8,286046999.9,N,1.2
1501718455.7,286047002.6,N,1.2
1501718475.5,286047000.3,N,1.2
1501718495.4,286047000.1,N,1.2
1501718515.2,286047002.3,N,1.2
1501718535.0,286047002.2,N,1.2
1501718535.9,286047002.2,N,1.2
1501718555.8,286047002.4,N,1.2
1501718575.6,286047000.0,N,1.2
1501718595.4,286047000.8,N,1.1
1501718615.3,286047000.2,N,1.1
1501718635.1,286047000.5,N,1.1
1501718655.9,286046999.8,N,1.1
1501718675.7,286046999.8,N,1.1
1501718695.5,286047002.8,N,1.1
1501718715.4,286046999.7,N,1.2
1501718735.2,286046999.7,N,1.2
1501718755.1,286047000.0,N,1.2
1501718756.0,286047000.0,N,1.1
1501718775.8,286047000.4,N,1.1
1501718795.6,286047000.0,N,1.1
1501718815.5,286047000.2,N,1.1
1501718835.3,286047000.7,N,1.1
1501718855.2,286046998.5,N,1.1
1501718875.9,286046998.6,N,1.2
1501718895.7,286047000.8,N,1.1
1501718915.6,286047000.7,N,1.1
1501718935.4,286047000.7,N,1.1
1501718955.3,286047000.3,N,1.1
1501718975.1,286046998.1,N,1.2
1501718995.8,286047000.5,N,1.2
1501719015.7,286047000.8,N,1.1
1501719035.5,286047000.1,N,1.1
1501719055.4,286047000.3,N,1.1
1501719075.2,286047000.3,N,1.0
1501719095.0,286047000.3,N,1.0
1501719095.9,286047000.3,N,0.9
1501719115.8,286047002.8,P,1.3
1501719135.6,286046999.7,N,1.4
1501719155.5,286047000.2,N,1.2
1501719175.3,286047000.4,N,1.1
1501719195.1,286046999.9,N,1.0
1501719215.9,286047002.6,N,1.2
1501719235.7,286047002.3,N,1.2
1501719255.6,286047002.8,N,1.3
1501719275.4,286047002.8,N,1.3
1501719295.2,286047000.0,N,1.3
1501719315.1,286047000.1,N,1.3
1501719316.0,286047000.1,N,1.3
1501719335.8,286046999.9,N,1.3
1501719355.7,286046999.7,N,1.3
1501719375.5,286047002.3,N,1.3
1501719395.4,286047000.2,N,1.2
1501719415.2,286046999.8,N,1.2
1501719435.0,286047002.8,N,1.3
1501719435.9,286047002.8,N,1.3
1501719455.8,286047000.1,N,1.3
1501719475.6,286047002.4,N,1.3
1501719495.4,286047002.4,N,1.3
1501719515.3,286046999.7,N,1.3
1501719535.1,286047000.0,N,1.3
1501719555.9,286047000.2,N,1.3
1501719575.7,286047000.3,N,1.3
1501719595.5,286047000.6,N,1.2
1501719615.4,286047000.9,N,1.2
1501719635.2,286046999.8,N,1.2
1501719655.1,286047000.2,N,1.2
1501719656.0,286047000.2,N,1.2
1501719675.8,286046998.1,N,1.3
1501719695.6,286046998.7,N,1.3
1501719715.5,286046998.4,N,1.4
1501719735.3,286046998.9,N,1.4
1501719755.2,286046996.5,N,1.5
1501719775.0,286046997.2,N,1.6
1501719775.9,286046997.2,N,1.6
1501719795.7,286046997.2,N,1.6
1501719815.6,286046997.8,N,1.7
1501719835.4,286046995.4,N,1.8
1501719855.3,286046996.1,N,1.9
1501719875.1,286046996.2,N,2.0
1501719895.8,286046995.1,N,2.2
1501719915.7,286046995.1,N,2.2
1501719935.5,286046993.3,P,2.9
1501719955.4,286046994.9,N,2.4
1501719975.2,286046998.0,N,2.3
1501719995.0,286046995.1,N,2.1
1501719995.9,286046995.1,N,2.0
1501720015.8,286046996.1,N,1.8
1501720035.6,286046995.4,N,1.7
1501720055.5,286046994.9,N,1.6
1501720075.3,286046994.9,P,0.4
1501720095.1,286047000.9,N,2.6
1501720115.9,286046998.4,N,2.4
1501720135.7,286046998.5,N,2.1
1501720155.6,286046998.3,N,2.0
1501720175.4,286046998.7,N,1.9
1501720195.2,286046999.2,N,1.8
1501720215.1,286046996.5,N,1.8
1501720216.0,286046996.5,N,1.7
1501720235.8,286046996.9,N,1.7
1501720255.7,286046996.6,N,1.6
1501720275.5,286046996.6,N,1.6
1501720295.3,286046996.7,N,1.5
1501720315.2,286046996.7,N,1.5
1501720335.0,286046997.2,N,1.4
1501720335.9,286046997.2,N,1.4
1501720355.7,286046997.4,N,1.4
1501720375.6,286046997.2,N,1.3
1501720395.4,286046997.2,N,1.3
1501720415.3,286046997.1,N,1.3
1501720435.1,286046996.6,N,1.2
1501720455.8,286046999.6,N,1.3
1501720475.7,286046999.5,N,1.3
1501720495.5,286046996.7,N,1.3
1501720515.4,286046998.0,N,1.3
1501720535.2,286046998.0,N,1.3
1501720555.0,286046997.3,N,1.3
1501720555.9,286046997.3,N,1.2
1501720575.8,286046997.3,N,1.2
1501720595.6,286046997.5,N,1.2
1501720615.5,286046997.6,N,1.1
1501720635.3,286046997.6,N,0.9
1501720655.1,286046995.1,P,1.2
1501720675.9,286046999.2,N,1.7
1501720695.7,286046997.3,N,1.5
1501720715.5,286046997.6,N,1.3
1501720735.4,286046997.3,N,1.2
1501720755.2,286046997.3,N,1.1
1501720775.1,286046997.5,N,1.0
1501720776.0,286046997.5,N,1.0
1501720795.8,286046997.1,N,0.9
1501720815.6,286046997.2,P,0.1
1501720835.5,286047000.6,P,1.6
1501720855.3,286047000.4,N,1.6
1501720875.2,286046999.4,N,1.5
1501720895.0,286046999.4,N,1.3
1501720895.9,286046999.4,N,1.2
1501720915.7,286046999.0,N,1.2
1501720935.6,286046999.5,N,1.1
1501720955.4,286046996.7,P,1.2
1501720975.3,286047000.6,N,1.6
1501720995.1,286047000.7,N,1.6
1501721015.9,286046999.9,N,1.5
1501721035.7,286047001.0,N,1.5
1501721055.5,286046998.2,N,1.4
1501721075.4,286046998.5,N,1.4
1501721095.2,286046998.6,N,1.3
1501721115.0,286046998.9,N,1.3
1501721115.9,286046998.9,N,1.2
1501721135.8,286046999.1,N,1.2
1501721155.6,286047001.2,N,1.2
1501721175.5,286047001.1,N,1.3
1501721195.3,286046998.5,N,1.3
1501721215.1,286046998.1,N,1.3
1501721235.9,286046998.2,N,1.2
1501721255.7,286047001.2,N,1.3
1501721275.6,286047000.6,N,1.3
1501721295.4,286046998.2,N,1.3
1501721315.2,286047000.7,N,1.3
1501721335.1,286047001.1,N,1.3
1501721336.0,286047001.1,N,1.3
1501721355.8,286047000.9,N,1.3
1501721375.7,286047000.3,N,1.3
1501721395.5,286046999.9,N,1.3
1501721415.3,286047000.1,N,1.2
1501721435.2,286047002.4,N,1.3
1501721455.0,286047002.3,N,1.4
1501721455.9,286047002.3,N,1.4
1501721475.8,286046999.8,N,1.4
1501721495.6,286047000.2,N,1.3
1501721515.4,286047002.1,N,1.3
1501721535.3,286047004.1,P,2.0
1501721555.1,286047004.3,N,1.9
1501721575.9,286047002.0,N,1.7
1501721595.7,286047003.5,N,1.6
1501721615.5,286047001.7,N,1.5
1501721635.4,286047004.2,N,1.5
1501721655.2,286047001.8,N,1.4
1501721675.1,286047004.3,N,1.4
1501721676.0,286047004.3,N,1.4
1501721695.8,286047004.1,N,1.4
1501721715.6,286047003.7,N,1.3
1501721735.5,286047003.5,N,1.3
1501721755.3,286047003.7,N,1.3
1501721775.2,286047003.7,N,1.2
1501721795.0,286047004.0,P,0.4
1501721795.9,286047004.0,P,0.3
1501721815.8,286046999.8,N,1.7
1501721835.6,286047002.6,N,1.6
1501721855.4,286047001.9,N,1.5
1501721875.3,286047002.3,N,1.4
1501721895.1,286047002.4,N,1.3
1501721915.8,286047002.1,N,1.2
1501721935.7,286047002.6,N,1.1
1501721955.5,286047002.0,N,1.1
1501721975.4,286047002.2,N,1.1
1501721995.2,286047001.7,N,1.0
